Cloud_Cover
66 10 46 100 5 77 60 94 52 93 100 100 100 100 100 100 97 72 24 5 5 5 5 4 3 0 5 2 6 7 0 0 0 0 0 0 0 3 37 67 37 40 100
2 0 6 2 5 22 98 100 76 81 100 100 100 92 16 9 16 4 5 3 2 8 33 41 11 4 5 5 0 0 0 0 0 0 0 0 0 0 100 100 11 5 56
11 0 2 98 85 19 6 2 85 100 11 65 60 5 5 5 5 0 24 99 100 100 100 100 81 90 14 2 2 0 0 0 0 0 0 0 0 2 96 98 5 5 5
0 0 12 5 99 9 0 0 0 0 39 10 5 5 0 0 5 100 100 100 100 100 100 100 100 100 100 3 0 0 0 0 0 0 0 0 0 4 75 100 78 5 34
0 0 0 2 54 57 32 0 0 0 0 6 0 1 15 83 100 100 100 100 100 100 100 100 100 100 100 38 2 0 3 3 2 0 0 0 0 5 38 100 72 83 100
0 0 1 0 0 0 0 0 0 1 5 12 8 93 100 100 100 100 100 100 100 100 100 100 100 100 100 99 98 26 20 5 0 0 0 0 0 1 7 100 100 80 100
2 2 5 20 10 0 2 0 0 94 76 99 100 100 100 82 100 100 100 100 100 100 100 100 100 100 100 100 49 2 81 0 4 70 0 0 0 0 4 9 93 93 100
100 18 2 0 2 21 5 5 90 70 56 78 55 79 95 100 100 100 100 100 100 96 100 100 100 100 100 100 96 2 0 0 75 19 0 0 0 0 0 3 5 4 25
100 100 30 2 2 5 24 6 5 6 77 100 100 100 98 100 58 100 100 100 100 100 100 100 100 100 100 100 81 5 0 0 0 0 0 0 0 0 0 0 0 0 0
100 99 100 8 5 0 1 1 1 4 9 41 71 84 70 26 100 65 99 100 100 100 100 100 100 100 100 100 53 1 0 0 0 0 0 0 0 0 0 0 0 0 0
96 100 100 50 18 6 0 0 0 5 6 92 80 54 79 36 55 93 100 100 100 100 97 100 100 100 100 100 100 62 4 0 0 0 0 0 0 0 0 0 0 0 0
83 30 94 75 8 36 92 3 0 0 32 44 40 79 100 46 100 100 92 100 100 100 99 95 100 100 100 100 100 100 96 5 5 0 0 0 0 0 0 0 0 2 4
100 100 19 100 100 57 63 6 5 5 3 0 65 99 100 100 100 100 99 100 100 100 100 100 100 100 100 100 100 100 92 97 31 20 3 0 0 0 0 0 0 0 0
100 100 99 96 100 71 100 98 21 5 5 5 5 78 14 96 100 100 100 100 100 100 100 83 19 5 4 18 64 97 38 100 100 66 98 23 13 67 8 5 5 5 5
94 96 100 100 100 75 26 99 93 10 5 5 5 16 15 6 5 20 69 62 87 43 74 15 16 5 5 5 20 61 8 100 100 83 71 87 71 26 98 74 19 92 100
43 100 100 100 100 100 16 47 57 34 7 3 4 5 5 53 97 94 73 64 37 19 27 31 36 70 26 56 75 23 5 91 100 100 50 87 16 5 31 80 99 100 94
24 100 100 94 100 100 76 100 88 92 67 98 42 5 5 5 4 3 12 40 29 7 12 5 7 5 18 9 98 100 64 71 97 99 100 15 97 37 8 5 7 62 86
8 95 65 80 76 98 100 89 96 36 7 6 17 11 8 13 4 4 0 4 5 4 6 5 5 4 5 5 96 100 100 94 41 12 59 98 90 100 100 100 93 84 99
78 5 5 14 13 66 99 96 100 98 20 6 14 29 8 5 85 1 1 4 5 5 5 5 4 5 7 5 9 90 100 79 56 71 93 94 28 94 81 100 100 99 97
7 0 3 5 9 9 28 47 100 96 88 51 33 78 6 78 23 97 6 11 5 3 2 5 5 1 0 4 2 7 2 13 5 6 7 20 91 90 100 100 99 85 95
40 2 5 26 38 96 28 81 62 47 19 72 6 5 12 6 95 60 60 96 52 8 5 0 0 2 2 8 8 3 0 0 0 0 37 92 87 7 81 100 100 100 100
100 61 0 8 100 100 100 84 46 42 37 5 5 5 5 5 5 30 100 88 90 79 96 62 20 28 1 3 0 4 4 2 14 0 0 7 8 64 100 100 93 55 46
100 100 100 100 46 100 100 100 86 68 6 5 16 5 5 5 5 5 54 71 57 100 100 100 100 100 47 19 90 27 16 4 30 4 5 0 5 0 35 24 18 50 38
100 100 100 100 100 100 99 89 100 23 55 78 48 5 5 5 11 49 5 5 5 28 44 95 100 100 100 100 100 88 38 27 7 10 4 4 4 5 11 22 56 28 6
100 100 100 100 100 100 100 100 100 100 96 100 88 52 99 100 94 61 78 7 5 0 4 5 45 78 39 18 93 100 100 100 100 79 1 4 4 47 5 5 10 1 0
100 100 100 100 100 100 100 100 100 100 100 100 100 89 37 83 100 100 97 79 82 29 62 37 88 66 94 95 77 63 54 100 100 100 83 49 6 5 32 18 9 10 5